Starlink 11369

operational
NORAD ID: 62095 Int'l Des: 2024-220 Owner: SPXS Country: US Constellation: starlink
LEOCIRCULAR

Starlink 11369について

説明を読み込み中...

リアルタイム位置

3D地球を読み込み中...

次回通過

高度履歴

Altitude vs Time

uPlot chart will show altitude changes over time

軌道要素

1 62095U 24220H 25305.56230424 .00265872 00000-0 20090-2 0 9996
2 62095 42.9975 95.2469 0001644 314.7065 45.3669 15.70850772 54909
Epoch: Nov 1, 2025 • Age: 13 hours

現在のステータス

高度 358.8 km
速度 7.70 km/s
衛星直下点 40.83°N, 87.5°E
打ち上げ日 Nov 25, 2024
運用期間 0.9 years
タイプ internet

技術仕様

分類 Payload
質量 960.00 kg
乾燥質量 910.00 kg
総質量 960.00 kg
長さ 0.30 m
直径 4.10 m
スパン 29.00 m
形状 Box + pan
製造者 SPXS
バスタイプ Starlink V2MD
フェーズステータス In Orbit
所有者/国 SPXS/US

大規模コンステレーション

Loading constellations...